Regional Weather Roundup
Issued by NWS

Home | Current Version | Previous Version | Text Only | Print | Product List | Glossary On
Versions: 1 2 3 4 5 6 7 8 9 10 11 12 13 14 15 16 17 18 19 20 21 22 23 24 25 26 27 28 29 30 31 32 33 34 35 36 37 38 39 40 41 42 43 44 45 46 47 48 49 50
000
ASUS43 KMPX 240510
RWRMN
WEATHER ROUNDUP FOR MINNESOTA
NATIONAL WEATHER SERVICE TWIN CITIES/CHANHASSEN MN
1200 AM CDT SUN MAY 24 2015


NOTE: "FAIR" INDICATES FEW OR NO CLOUDS BELOW 12,000 FEET WITH NO
SIGNIFICANT WEATHER AND/OR OBSTRUCTIONS TO VISIBILITY. N/A MEANS
CURRENT SKY AND/OR WEATHER CONDITIONS ARE NOT AVAILABLE.

MNZ060>063-068>070-240600-
   Twin Cities Metro

CITY           SKY/WX    TMP DP  RH WIND       PRES   REMARKS
TWIN CITIES    CLOUDY    63  46  54 E5        30.14S
ST PAUL        CLOUDY    62  48  60 CALM      30.15S
CRYSTAL        CLOUDY    61  50  67 CALM      30.13F
BLAINE         CLOUDY    61  52  72 CALM      30.14F
LAKEVILLE      CLOUDY    59  46  63 CALM      30.14S
EDEN PRAIRIE   CLOUDY    62  49  62 NE6       30.13S
SOUTH ST PAUL  CLOUDY    63  46  52 CALM      30.14S
LAKE ELMO      MOCLDY    59  48  67 CALM      30.16S
$$
MNZ001>005-007-008-013>017-022>024-027-028-240600-
   Northwest Minnesota

CITY           SKY/WX    TMP DP  RH WIND       PRES   REMARKS
BEMIDJI        PTCLDY    57  44  61 S5        30.14F
HALLOCK        PTCLDY    57  45  62 S7        30.09S
ROSEAU         PTCLDY    59  46  63 SW7       30.10S
WARROAD        PTCLDY    63  46  55 SW6       30.10R
THIEF RVR FALL PTCLDY    57  43  58 S7        30.12S
CROOKSTON      PTCLDY    57  45  62 S7        30.11F
FOSSTON        MOCLDY    54  43  66 S5        30.14F
DETROIT LAKES  MOCLDY    54  46  76 CALM      30.14F
MOORHEAD       PTCLDY    57  48  72 CALM      30.12F
PARK RAPIDS    PTCLDY    54  45  71 CALM      30.13F
MAHNOMEN       FAIR      56  45  66 SE5       30.12F
$$
MNZ006-009>011-018-025>026-240600-
   North Central Minnesota

CITY           SKY/WX    TMP DP  RH WIND       PRES   REMARKS
BAUDETTE       CLEAR     55  43  63 W5        30.10R
FLAG ISLAND    CLEAR     63  41  45 SW12      30.06S
INTL FALLS     CLEAR     54  39  57 SW5       30.10R
WASKISH        CLEAR     57  46  67 CALM      30.13R
BIG FORK       FAIR      54  43  66 CALM      30.15R
LONGVILLE      PTCLDY    48  46  93 CALM      30.14F
GRAND RAPIDS   PTCLDY    48  39  71 S3        30.16S
CRANE LAKE     CLEAR     54  39  58 S3        30.13R
ORR            CLEAR     57  39  51 CALM      30.12R
COOK           CLEAR     59  45  58 SW3       30.15R
WALKER         FAIR      53  43  69 CALM      30.14F
$$
MNZ012-019>021-037-240600-
   Northeast Minnesota

CITY           SKY/WX    TMP DP  RH WIND       PRES   REMARKS
DULUTH         CLEAR     58  42  55 W7        30.16S
ELY            CLEAR     59  43  55 SW5       30.14R
HIBBING        CLEAR     46  41  82 CALM      30.15R
EVELETH        CLEAR     52  45  76 CALM      30.17R
DULUTH HARBOR  CLEAR     59  46  63 S3        30.15F
TWO HARBORS    CLEAR     61  46  59 W5        30.14R
GRAND MARAIS     N/A     41  37  86 SW3       30.10R
G MARAIS ARPRT CLEAR     55  36  47 W6        30.14R
$$
MNZ029>031-032-039>041-046>048-054>057-064-240600-
   West Central Minnesota

CITY           SKY/WX    TMP DP  RH WIND       PRES   REMARKS
FERGUS FALLS   CLOUDY    61  48  63 E5        30.12F
WHEATON        CLOUDY    59  48  67 E7        30.12F
MORRIS         MOCLDY    63  46  55 E12       30.10F
ALEXANDRIA     CLOUDY    61  46  57 E9        30.14F
ELBOW LAKE     CLOUDY    62  48  60 E8        30.12F
WADENA         CLOUDY    57  48  72 CALM      30.14F
GLENWOOD       MOCLDY    59  48  67 E8        30.14F
APPLETON       MOCLDY    61  46  59 E8        30.09F
BENSON         MOCLDY    61  46  59 SE5       30.11F
ORTONVILLE     CLOUDY    61  48  63 E6        30.09F
MADISON        CLOUDY    59  46  63 E8        30.08F
WILLMAR        MOCLDY    61  48  63 E9        30.12F
$$
MNZ033>034-036-042>043-049>051-058-059-240600-
   Central Minnesota

CITY           SKY/WX    TMP DP  RH WIND       PRES   REMARKS
ST CLOUD       CLOUDY    60  48  64 CALM      30.14F
SAUK CENTRE    CLOUDY    59  48  67 E6        30.13F
PAYNESVILLE    MOCLDY    57  46  66 CALM      30.13F
AITKIN         MOCLDY    50  45  81 CALM      30.14F
PINE RIVER     PTCLDY    52  46  82 CALM      30.17F
BRAINERD       CLOUDY    57  50  77 CALM      30.16S
STAPLES        CLOUDY    59  45  58 CALM      30.14F
LONG PRAIRIE   CLOUDY    59  46  63 NE3       30.15F
LITTLE FALLS   CLOUDY    59  46  63 CALM      30.15F
LITCHFIELD     CLOUDY    59  54  82 E7        30.13F
BUFFALO        CLOUDY    58  50  74 CALM      30.14F
MAPLE LAKE     CLOUDY    60  52  75 CALM      30.15F
$$
MNZ037-044-045-052-053-240600-
   East Central Minnesota

CITY           SKY/WX    TMP DP  RH WIND       PRES   REMARKS
PRINCETON      LGT RAIN  61  52  72 NE3       30.15S
MORA           CLOUDY    59  45  58 CALM      30.17S
CAMBRIDGE      CLOUDY    64  48  55 CALM      30.14S
RUSH CITY      CLOUDY    59  48  67 CALM      30.16S
MOOSE LAKE     PTCLDY    48  45  87 CALM      30.14F
HINCKLEY       CLOUDY    55  52  88 CALM      30.16S
CLOQUET        CLEAR     54  41  62 W3        30.16S
MCGREGOR       PTCLDY    52  45  76 CALM      30.16S
$$
MNZ071>073-080-081-089-090-097-098-240600-
   Southwest Minnesota

CITY           SKY/WX    TMP DP  RH WIND       PRES   REMARKS
MONTEVIDEO     LGT RAIN  61  50  67 SE8       30.10F
GRANITE FALLS  CLOUDY    61  49  64 E7        30.10F
CANBY          CLOUDY    59  49  68 CALM      30.09F
MARSHALL       CLOUDY    61  48  63 E8        30.07F
REDWOOD FALLS  CLOUDY    62  49  62 E8        30.09F
OLIVIA         CLOUDY    57  45  62 E8        30.09F
PIPESTONE      CLOUDY    61  52  72 SE3       30.08F
WINDOM         CLOUDY    63  52  67 CALM      30.09F
WORTHINGTON    CLOUDY    61  50  67 CALM      30.09F
JACKSON        CLOUDY    63  54  72 E5        30.10F
TRACY          CLOUDY    63  50  62 SE6       30.08F
SLAYTON        CLOUDY    60  50  69 CALM      30.10S
$$
MNZ065>067-074>077-082>085-091>093-240600-
   South Central Minnesota

CITY           SKY/WX    TMP DP  RH WIND       PRES   REMARKS
MANKATO        CLOUDY    63  54  72 NE6       30.12F
NEW ULM        CLOUDY    64  52  63 CALM      30.11F
ST JAMES       CLOUDY    64  54  68 E6        30.11F
FAIRMONT       CLOUDY    63  48  59 E5        30.10F
GLENCOE        CLOUDY    61  51  68 CALM      30.12F
FARIBAULT      CLOUDY    61  52  72 CALM      30.13S
OWATONNA       CLOUDY    63  54  72 CALM      30.12F
WASECA         CLOUDY    63  54  72 N3        30.13F
ALBERT LEA     CLOUDY    63  54  72 CALM      30.11F
$$
MNZ078>079-086>088-094>096-240600-
   Southeast Minnesota

CITY           SKY/WX    TMP DP  RH WIND       PRES   REMARKS
ROCHESTER      CLOUDY    63  48  58 E6        30.14F
RED WING       CLOUDY    64  45  48 E6        30.13S
STANTON        CLOUDY    63  49  61 NE6       30.12F
DODGE CENTER   CLOUDY    64  48  55 E5        30.13S
WINONA         CLOUDY    61  54  77 CALM      30.14F
AUSTIN         CLOUDY    63  52  67 CALM      30.11F
PRESTON        MOCLDY    64  47  54 SE3       30.15S
$$
ABBREVIATIONS USED IN REMARKS
   TC - TEMPERATURES IN CELSIUS
  WCI - WIND CHILL INDEX
   HX - HEAT INDEX
  VSB - VISIBILITY
$$



USA.gov is the U.S. government's official web portal to all federal, state and local government web resources and services.